Location: Newark
(46.7000°N, 60.6000°W)
Time: 20:49:04
(UTC+00:00)

Vanguard 2 Rocket - All Passes

Search period start: 28 October 2020 00:00
Search period end: 07 November 2020 00:00
Orbit: 554 x 3326 km, 32.9° (Epoch: 28 October)

Date Brightness Start Highest point End Pass type
(mag) Time Alt. Az. Time Alt. Az. Time Alt. Az.
28 Oct - 01:52:42 10° SW 01:56:52 20° S 02:02:37 10° SE night (unlit)
28 Oct - 04:07:07 10° SW 04:10:04 12° SSW 04:13:31 10° S night (unlit)
28 Oct - 22:43:29 10° SSW 22:45:29 13° SSE 22:47:43 10° SE visible
29 Oct - 00:53:58 10° SW 00:57:30 19° S 01:02:09 10° SE visible
29 Oct - 03:07:01 10° SW 03:10:18 13° SSW 03:14:20 10° S night (unlit)
29 Oct - 23:55:24 10° SW 23:58:17 17° S 00:01:51 10° SE visible
30 Oct - 02:07:37 10° SW 02:10:44 14° S 02:14:37 10° SSE night (unlit)
30 Oct - 22:56:57 10° SSW 22:59:11 14° S 23:01:41 10° SE visible
31 Oct - 01:08:34 10° SW 01:11:20 15° S 01:14:44 10° SSE night (unlit)
31 Oct - 21:58:42 10° S 22:00:07 12° S 22:01:33 10° SSE visible
01 Nov - 00:09:41 10° SW 00:12:05 14° S 00:14:53 10° SSE visible
01 Nov - 23:10:54 10° SSW 23:12:56 13° S 23:15:10 10° SSE visible
02 Nov - 22:12:05 10° SSW 22:13:50 13° S 22:15:37 10° SSE visible
03 Nov - 00:25:23 10° SSW 00:25:53 10° S 00:26:24 10° S visible
03 Nov - 21:13:10 10° SSW 21:14:44 12° S 21:16:15 10° SSE visible
03 Nov - 23:25:37 10° SSW 23:26:41 11° S 23:27:49 10° S visible
04 Nov - 20:14:06 10° SSW 20:15:36 11° S 20:16:59 10° SSE daylight
04 Nov - 22:26:07 10° SSW 22:27:34 12° S 22:29:02 10° SSE visible
05 Nov - 19:14:59 10° S 19:16:23 11° S 19:17:41 10° SSE daylight
05 Nov - 21:26:34 10° SSW 21:28:28 13° S 21:30:18 10° SSE visible
06 Nov - 18:16:04 10° S 18:17:04 10° SSE 18:18:00 10° SSE daylight
06 Nov - 20:26:51 10° SSW 20:29:22 14° S 20:31:35 10° SSE daylight
